This is the latest recevied weather packets stored in our database for station/object W6MAF. If no packets are shown the sender has not sent any weather packets the latest 10 day(s).
| Time | Temp. | Humidity | Pressure | Rain* | Wind** | Luminosity | Snow |
|---|---|---|---|---|---|---|---|
| 1788573955 | 21.11° C | 20% | - | 0 mm | 10.28 m/s, 186° | - | - |
| 1788573657 | 21.11° C | 19% | - | 0 mm | 8.94 m/s, 190° | - | - |
| 1788573059 | 21.67° C | 16% | - | 0 mm | 8.49 m/s, 184° | - | - |
| 1788572761 | 21.67° C | 15% | - | 0 mm | 8.49 m/s, 200° | - | - |
| 1788572463 | 22.22° C | 15% | - | 0 mm | 8.94 m/s, 207° | - | - |
| 1788572166 | 22.22° C | 14% | - | 0 mm | 8.94 m/s, 190° | - | - |
| 1788571868 | 22.22° C | 13% | - | 0 mm | 8.05 m/s, 191° | - | - |
| 1788571570 | 22.22° C | 12% | - | 0 mm | 8.94 m/s, 187° | - | - |
| 1788571269 | 22.22° C | 12% | - | 0 mm | 11.18 m/s, 201° | - | - |
| 1788570674 | 22.78° C | 13% | - | 0 mm | 8.94 m/s, 198° | - | - |
| 1788570376 | 22.78° C | 14% | - | 0 mm | 8.49 m/s, 167° | - | - |
| 1788570078 | 22.78° C | 15% | - | 0 mm | 10.28 m/s, 184° | - | - |
| 1788569781 | 22.78° C | 15% | - | 0 mm | 8.49 m/s, 194° | - | - |
| 1788569480 | 22.78° C | 13% | - | 0 mm | 6.26 m/s, 187° | - | - |
| 1788569182 | 22.78° C | 12% | - | 0 mm | 8.49 m/s, 183° | - | - |
| 1788568884 | 22.78° C | 11% | - | 0 mm | 7.6 m/s, 195° | - | - |
| 1788568587 | 22.78° C | 12% | - | 0 mm | 8.49 m/s, 180° | - | - |
| 1788568289 | 23.33° C | 12% | - | 0 mm | 10.28 m/s, 194° | - | - |
| 1788567991 | 23.33° C | 10% | - | 0 mm | 9.83 m/s, 180° | - | - |
| 1788567690 | 23.33° C | 11% | - | 0 mm | 9.83 m/s, 195° | - | - |
| 1788567393 | 23.33° C | 9% | - | 0 mm | 9.39 m/s, 203° | - | - |
| 1788567095 | 23.33° C | 9% | - | 0 mm | 10.73 m/s, 188° | - | - |
| 1788566797 | 23.33° C | 8% | - | 0 mm | 9.83 m/s, 190° | - | - |
| 1788566499 | 23.33° C | 8% | - | 0 mm | 10.73 m/s, 191° | - | - |
| 1788566201 | 23.33° C | 8% | - | 0 mm | 10.28 m/s, 184° | - | - |
* Rain latest hour (hover to see other rain measurements)
** Current wind speed in m/s (hover to see current wind gust speed)